GFSCGP_prec_cloud_132.txt.gz
Cloud_Cover
0 0 2 4 10 1 100 27 5 3 91 99 43 100 100 100 7 93 100 100 100 88 99 93 5 74 99 27 5 8 91 34 14 10 99 99 55 21 5 5 4 4 22 52
0 0 2 0 2 38 100 48 100 100 100 98 97 100 5 96 95 100 100 100 100 100 100 97 88 66 100 96 75 100 96 8 5 5 5 11 90 45 70 38 26 30 30 82
0 0 1 5 57 68 71 100 100 100 99 84 8 100 100 15 100 100 100 100 100 100 100 100 34 83 93 20 5 5 9 87 74 5 5 5 4 5 34 34 5 5 12 62
0 0 0 1 59 51 85 35 90 100 100 0 0 2 24 100 100 100 100 100 100 100 100 100 65 94 100 95 34 17 68 100 84 53 40 12 37 4 3 1 31 5 16 7
0 5 0 5 1 19 96 80 89 57 85 51 44 0 0 1 55 99 100 100 100 100 100 100 100 100 100 100 75 100 96 100 99 100 100 39 35 5 6 7 44 97 72 96
7 68 80 0 5 55 89 100 48 60 100 88 8 63 0 0 0 5 48 86 100 100 100 100 100 100 100 100 100 100 100 100 100 97 100 100 97 94 84 10 39 82 73 46
72 74 58 22 76 26 17 98 100 100 94 11 29 74 3 54 0 0 0 24 92 100 100 100 87 100 100 100 100 100 100 100 100 100 100 100 97 100 99 37 75 37 0 2
56 71 96 40 30 25 13 99 99 3 48 25 94 57 48 32 0 0 0 48 100 100 100 100 100 100 100 100 100 100 100 100 100 100 100 100 100 43 98 95 100 45 64 45
7 100 52 50 98 100 26 0 20 100 31 57 89 33 100 5 4 0 0 10 99 100 100 100 100 100 100 100 100 100 100 100 100 100 100 100 100 65 100 42 41 5 11 9
49 95 100 44 5 44 100 34 96 100 98 100 100 50 73 10 0 0 0 0 39 100 100 100 100 100 100 100 100 100 100 100 100 100 100 100 100 88 3 6 0 0 39 83
100 99 94 100 18 98 100 76 18 94 100 100 100 100 100 59 4 40 5 4 2 94 100 100 100 100 100 97 100 100 82 22 46 6 2 0 2 5 1 3 3 70 100 100
100 74 83 64 83 5 10 100 48 8 6 16 85 99 97 100 76 78 9 5 4 91 100 100 100 20 35 98 100 92 99 21 0 0 4 0 49 63 32 2 3 1 0 3
77 68 92 36 24 9 39 5 34 100 9 2 17 59 100 36 96 100 100 88 92 14 99 92 84 66 15 6 5 4 34 28 5 5 0 0 0 0 0 0 2 0 1 0
100 100 70 98 18 71 0 25 100 60 2 1 1 100 100 81 77 66 100 75 75 57 64 44 5 5 38 8 5 6 5 0 2 0 0 1 3 2 6 4 0 0 3 3
100 100 100 45 100 91 29 5 94 73 72 65 80 2 53 6 40 97 87 77 43 25 16 13 100 91 100 82 80 82 73 44 46 4 3 5 5 68 26 0 0 0 0 0
100 100 100 100 76 99 24 87 100 100 100 100 92 96 30 88 63 99 100 100 100 9 5 5 35 77 74 91 100 100 28 5 7 4 2 32 5 4 0 0 0 0 0 0
100 100 100 100 100 100 100 94 100 100 100 100 100 100 97 73 100 100 99 86 76 61 74 81 59 70 98 95 22 35 6 57 47 22 8 1 0 0 0 0 0 0 0 0
100 100 100 100 100 100 100 100 100 100 100 100 100 100 100 100 100 100 83 86 87 83 86 59 36 5 5 5 5 13 16 4 9 5 5 2 5 5 4 0 0 0 0 0
100 100 100 100 100 100 100 100 100 100 100 100 100 100 100 100 100 29 18 9 5 5 5 34 5 5 5 5 5 28 5 5 5 4 5 5 5 5 4 1 0 0 0 2
100 100 100 100 100 100 100 100 100 100 100 100 100 100 100 100 100 12 79 28 6 64 87 14 5 6 8 6 23 43 59 52 6 5 5 5 5 4 0 0 1 10 54 58
88 100 100 100 100 100 100 99 100 92 100 100 100 100 100 100 57 5 5 38 6 4 5 2 6 46 100 100 81 26 5 5 5 5 5 5 4 0 21 91 88 100 100 100
100 96 87 100 80 99 100 17 35 22 62 99 64 5 12 7 5 3 22 5 5 42 66 75 37 89 37 8 5 5 5 5 5 5 3 0 6 71 66 100 100 100 100 100
100 100 100 100 100 100 68 5 6 7 7 5 5 22 5 3 5 83 76 72 73 38 27 6 5 5 5 5 5 5 5 0 0 6 30 86 54 98 100 100 100 100 100 100
100 100 100 100 90 43 83 71 14 22 70 100 100 48 34 27 17 9 5 5 5 4 2 2 4 5 5 2 1 5 12 60 57 46 65 49 100 99 100 100 100 100 100 100
100 100 100 100 100 40 7 30 42 100 86 61 70 6 5 5 4 1 0 2 4 5 5 4 4 5 6 11 36 65 82 98 98 100 99 100 100 100 100 100 100 100 100 100
99 100 100 100 100 100 15 38 13 35 39 7 5 5 0 0 0 1 5 5 2 0 6 8 42 92 100 100 100 100 100 100 100 100 100 100 100 100 100 100 100 99 100 100

GFSCGP_prec_cloud_135.txt.gz
Cloud_Cover
0 35 97 90 5 5 5 5 3 33 100 100 90 100 100 96 5 5 6 97 100 91 100 29 5 4 15 99 18 5 2 0 72 100 100 100 100 98 100 100 5 5 5 91
0 0 0 0 8 5 5 29 11 5 71 100 100 99 100 100 40 0 3 5 46 99 100 73 6 7 5 8 7 5 39 12 11 5 26 100 100 100 99 12 5 0 2 14
0 0 0 0 0 0 18 45 6 3 90 44 99 100 41 98 100 73 4 5 68 100 100 94 15 12 82 54 19 53 90 99 96 74 22 63 100 100 54 5 1 1 4 3
0 0 0 0 0 3 4 0 34 80 100 46 25 5 47 31 60 100 86 5 71 100 100 100 86 36 98 85 23 44 28 98 100 95 97 97 81 66 6 5 5 64 19 20
0 0 0 0 0 4 0 79 100 100 99 69 88 5 0 6 60 90 39 79 54 45 89 100 100 100 100 100 100 100 79 49 99 99 51 18 41 98 96 4 5 5 4 5
0 0 0 0 0 48 99 45 100 100 100 100 36 31 0 0 0 76 100 20 6 90 47 100 100 100 100 100 100 100 100 100 100 100 97 100 84 64 62 38 1 3 40 27
1 0 0 2 0 4 97 99 20 93 100 95 20 18 0 0 0 0 35 100 96 16 14 95 100 100 100 100 100 100 100 100 100 99 100 99 87 87 54 8 24 74 75 84
5 4 22 38 1 0 89 51 93 72 0 0 0 16 0 59 21 5 0 1 38 100 100 74 38 99 100 100 100 100 100 100 100 100 94 97 97 92 100 74 100 85 100 94
5 5 2 9 6 3 3 73 99 100 7 4 23 28 0 4 55 5 0 0 0 0 73 100 100 100 100 100 100 100 100 100 100 100 100 100 100 100 100 100 97 98 67 100
22 62 93 56 5 7 89 81 94 100 38 6 39 100 72 3 5 5 4 5 2 12 0 0 22 75 100 100 100 100 100 100 100 100 100 100 100 100 100 100 100 100 100 86
32 100 91 83 17 13 87 14 17 4 100 100 100 100 100 7 77 2 2 4 1 79 57 49 4 10 5 70 7 18 35 78 100 100 100 100 100 100 100 54 92 42 44 5
46 93 13 22 28 0 92 100 23 27 100 100 100 100 100 98 100 100 26 5 29 6 5 3 6 5 5 1 2 98 100 96 8 100 89 86 57 100 73 37 75 4 1 0
100 43 91 85 27 8 11 41 95 89 100 100 100 100 100 100 100 100 100 99 75 100 91 60 5 3 0 2 0 2 93 100 15 85 96 94 31 3 31 2 37 77 4 67
100 66 37 69 8 8 9 44 99 22 75 91 87 100 100 100 97 100 100 56 64 59 55 15 5 4 0 0 0 0 0 3 4 5 5 5 5 15 10 22 2 12 34 0
100 100 100 95 100 100 82 15 9 97 53 99 22 14 74 100 85 100 100 100 64 100 36 52 90 70 16 2 0 0 0 0 0 0 2 14 29 22 1 4 15 4 4 20
100 100 100 100 100 100 100 100 56 5 5 66 15 60 15 59 100 100 100 95 100 78 14 16 78 92 99 5 2 5 5 5 5 5 0 0 0 0 0 5 29 1 5 1
100 100 100 100 100 100 100 100 98 32 99 90 14 25 100 100 100 43 83 10 40 100 100 24 4 5 5 5 5 5 5 5 2 0 0 0 0 0 0 0 2 0 0 0
100 100 100 84 94 100 100 100 100 100 100 100 75 58 78 99 46 39 66 84 100 100 100 88 61 5 4 5 46 46 62 5 4 2 0 0 0 0 0 0 0 0 0 0
100 100 100 100 100 100 100 100 100 100 100 100 90 93 100 100 100 99 100 100 100 100 100 100 53 49 14 15 35 24 5 0 2 0 0 0 0 0 0 0 0 0 0 0
100 100 100 100 94 100 100 100 100 100 100 100 100 100 100 100 100 100 100 100 100 100 94 8 5 5 5 3 5 31 5 3 0 0 0 0 0 0 0 0 0 0 5 13
100 100 100 100 86 100 100 47 100 100 100 100 100 100 100 100 100 100 100 100 100 88 10 5 5 5 5 5 5 5 5 4 1 0 0 0 0 0 0 1 4 29 100 100
100 100 100 100 100 100 100 100 100 100 100 100 100 100 100 100 100 100 100 96 48 20 6 5 4 5 5 1 0 0 0 0 0 0 0 0 2 4 5 28 100 100 100 100
100 100 100 100 100 100 100 100 100 100 100 88 98 6 10 9 5 5 4 5 5 1 0 0 3 2 0 0 0 0 0 0 2 5 5 5 5 5 44 100 100 100 100 100
100 100 100 95 100 100 100 100 100 44 16 8 22 6 5 5 4 1 0 0 0 0 0 0 0 0 0 0 2 5 5 5 5 5 5 5 10 100 100 100 100 100 100 100
100 99 94 100 100 100 100 100 100 69 87 62 19 53 72 88 20 5 0 0 0 0 0 0 3 5 5 5 5 20 43 29 19 7 6 68 100 100 100 100 100 100 100 100
82 98 100 72 100 100 100 100 100 19 48 59 59 39 63 18 5 4 5 5 1 4 6 31 74 92 87 24 53 45 41 65 7 64 100 100 100 100 100 100 100 100 100 100

GFSCGP_prec_cloud_138.txt.gz
Cloud_Cover
53 4 4 21 100 99 5 54 94 100 100 5 16 100 100 100 100 72 100 100 100 100 77 5 5 5 5 80 100 100 100 100 100 100 100 100 100 100 100 100 100 100 100 100
67 60 98 74 14 37 30 23 9 96 100 99 10 96 100 100 100 100 66 92 100 100 98 5 4 5 13 68 88 100 100 100 100 100 100 100 99 93 100 95 90 100 100 100
60 62 64 5 7 5 0 0 0 5 100 99 100 62 100 100 100 10 48 23 99 100 100 5 4 5 0 9 99 76 77 100 100 100 100 100 100 100 100 94 89 5 38 100
2 0 3 70 100 82 7 2 0 4 17 28 17 31 100 100 100 99 5 5 6 100 100 44 0 0 5 5 25 93 99 82 43 53 100 100 100 99 20 28 29 11 49 0
33 0 0 0 4 3 30 15 50 58 5 5 62 62 98 100 100 100 100 7 57 15 76 94 5 2 59 100 94 69 96 100 100 100 100 27 99 100 38 5 73 8 6 2
2 0 0 0 0 0 0 97 74 100 81 100 6 5 1 7 86 100 100 100 98 99 9 40 73 27 5 51 84 100 100 98 94 100 96 96 90 56 5 5 5 34 48 46
3 1 0 0 0 0 69 93 100 100 100 39 4 4 0 0 1 47 91 100 100 100 100 100 100 100 98 78 21 8 39 53 18 6 98 69 29 35 5 10 17 25 30 10
0 0 0 0 5 71 61 12 93 100 100 19 31 70 0 0 0 5 3 14 100 100 100 100 100 100 100 100 99 100 100 94 96 95 35 89 94 100 90 33 8 5 10 9
0 0 0 0 0 4 100 7 21 100 100 99 47 64 0 0 0 5 5 0 5 92 100 100 100 100 100 100 100 100 100 100 100 100 100 100 100 100 97 94 67 14 36 74
0 0 0 0 1 0 18 63 89 58 4 5 2 1 0 0 0 3 4 4 0 0 22 76 83 83 97 100 100 100 100 100 100 100 100 100 100 100 98 41 99 76 90 90
0 1 3 40 5 1 6 3 91 100 100 25 4 1 0 20 21 72 97 99 74 13 0 0 0 0 2 14 42 60 100 100 100 100 88 59 65 98 98 66 100 99 100 97
1 3 13 2 3 24 14 22 55 62 55 7 88 100 100 87 65 33 100 100 100 7 5 1 0 0 0 0 0 0 0 6 98 100 100 60 98 100 100 100 99 100 69 59
24 13 19 31 90 51 88 100 82 100 100 100 100 100 100 100 91 27 5 55 50 74 36 18 5 4 4 4 4 4 2 0 0 0 0 0 0 0 0 0 0 3 1 0
88 60 65 33 88 5 99 98 95 61 100 100 100 100 100 100 100 100 100 95 77 100 96 5 5 5 5 5 6 0 0 0 0 0 0 0 0 0 0 0 0 0 0 3
88 26 5 35 91 24 8 17 96 38 91 100 100 100 100 100 100 100 100 100 100 27 74 5 5 4 3 6 2 0 0 0 5 4 0 0 0 0 0 0 0 0 0 0
100 90 7 100 100 100 76 38 12 23 37 5 38 65 100 100 100 100 100 100 100 100 82 5 4 4 0 0 0 3 0 0 2 26 15 5 2 0 0 0 0 0 0 0
100 91 5 90 100 100 100 98 98 56 28 20 43 69 80 84 93 61 100 100 100 30 32 11 18 5 4 0 5 49 8 5 5 5 5 5 3 0 0 0 0 0 0 0
100 88 19 88 94 100 100 100 100 100 78 42 3 5 28 98 88 99 100 100 100 85 22 0 0 1 0 4 5 5 4 5 5 5 3 0 0 0 0 0 0 0 0 0
100 100 95 84 95 100 65 35 100 100 66 70 34 4 5 25 81 99 100 99 91 24 5 25 88 92 81 28 60 50 6 5 2 0 0 0 0 0 0 0 0 0 0 0
100 100 100 100 95 100 100 100 100 100 100 100 100 100 98 100 59 11 12 11 10 78 100 100 63 79 100 100 100 40 5 5 0 0 0 0 0 0 0 0 0 5 5 8
100 100 98 100 100 100 100 100 100 100 100 100 100 100 100 96 91 100 100 100 100 100 100 100 100 100 98 66 9 4 0 0 0 0 0 0 1 3 5 5 5 16 41 73
100 100 98 100 100 100 100 100 100 100 100 100 99 100 99 100 100 100 100 100 100 100 100 100 100 82 17 4 0 0 1 3 5 5 5 5 5 5 5 10 96 92 100 100
99 97 100 100 100 87 100 100 100 100 100 100 77 98 100 100 100 100 100 100 69 58 30 7 5 5 5 4 5 5 5 5 5 5 5 5 5 5 10 58 100 100 100 100
100 100 100 100 100 100 100 100 100 100 100 50 10 7 26 8 30 20 5 5 5 5 5 5 5 5 5 5 5 5 5 5 5 5 5 5 31 51 100 100 100 99 100 100
100 100 100 100 100 100 100 100 100 98 100 100 100 100 81 58 34 8 5 5 5 5 5 5 5 5 5 5 5 5 5 5 5 24 59 73 100 100 100 100 96 100 100 100
100 100 100 100 100 100 100 100 97 100 100 100 100 100 100 100 97 84 7 5 5 5 5 5 5 5 5 5 5 5 5 8 61 100 100 100 100 100 99 100 100 100 100 100

GFSCGP_prec_cloud_141.txt.gz
Cloud_Cover
0 0 0 0 0 0 0 92 100 100 100 89 100 100 100 100 100 100 21 69 99 45 5 5 5 5 4 0 0 100 89 100 100 100 100 100 100 100 100 100 100 100 100 100
0 0 0 0 0 0 0 2 100 100 100 100 100 100 100 100 100 100 22 18 100 55 8 5 5 3 2 0 0 16 100 100 100 100 100 100 100 100 100 99 86 100 100 100
0 0 0 0 0 0 0 0 36 100 100 68 100 100 100 100 100 100 79 5 8 55 5 11 4 0 0 1 3 4 5 63 100 100 100 100 100 100 99 100 100 100 100 100
4 0 0 0 0 0 0 0 5 92 100 33 91 60 100 100 100 100 100 72 9 5 4 0 0 0 4 5 5 5 65 4 76 100 100 100 100 100 100 100 100 100 100 90
0 0 0 0 1 0 0 0 5 93 45 11 87 5 91 100 100 100 69 53 100 99 8 0 0 2 5 56 92 39 5 38 92 5 96 100 100 100 100 100 100 100 100 100
15 44 4 4 7 6 6 4 3 18 57 66 4 32 99 100 100 100 100 100 99 92 18 11 4 4 23 80 100 100 27 18 96 100 60 48 97 100 100 100 100 100 100 94
14 49 6 4 2 93 75 6 94 100 98 0 0 4 0 100 100 100 100 100 100 6 14 38 7 98 100 99 90 24 39 87 71 74 100 100 52 34 0 2 7 6 4 3
100 100 88 97 60 5 5 67 76 98 8 0 98 11 0 0 19 100 100 100 100 46 69 76 100 60 5 7 5 31 88 92 6 5 2 4 8 0 0 0 0 2 1 1
100 38 5 5 0 0 0 8 49 42 6 80 79 1 0 0 0 0 59 100 100 100 100 100 100 79 100 100 99 67 67 46 10 5 8 16 5 5 3 1 0 1 2 3
0 0 1 8 76 63 57 59 73 60 85 97 77 1 1 1 0 0 0 0 11 84 100 100 100 100 100 100 100 100 100 100 93 44 16 11 36 12 5 5 6 14 12 31
5 1 0 9 24 6 3 1 18 89 50 100 100 99 16 0 0 0 0 0 0 0 0 3 35 100 100 100 100 100 100 100 100 100 100 100 41 39 23 35 55 14 21 2
4 0 0 0 5 28 4 0 1 67 15 32 85 13 3 0 0 0 0 16 62 7 16 2 0 0 3 31 100 100 100 100 100 100 100 100 100 100 100 34 5 3 5 26
3 0 0 0 0 5 5 21 19 74 89 97 14 5 5 4 1 0 21 52 86 5 9 12 3 4 1 4 3 2 1 23 24 47 25 10 37 42 3 0 0 0 0 0
7 0 0 0 41 0 6 99 77 81 5 78 98 100 100 100 79 4 4 9 56 90 59 18 78 84 6 100 67 72 87 9 3 22 4 0 0 0 0 0 2 2 0 0
37 0 0 95 5 29 1 9 81 100 75 100 100 100 100 100 100 96 41 90 99 100 100 100 100 75 85 5 16 0 46 98 100 100 98 70 31 1 4 5 5 2 0 0
58 5 5 6 6 15 10 4 5 89 100 100 100 100 100 100 100 100 100 100 97 36 100 100 100 7 9 89 57 56 44 89 100 100 100 91 13 0 0 2 0 0 0 0
98 5 46 5 81 60 88 94 5 5 100 100 100 100 100 100 100 100 100 100 100 100 100 88 94 6 7 17 63 3 0 0 0 0 0 0 0 0 1 0 0 0 0 0
100 89 35 64 94 72 63 56 5 79 100 100 100 100 100 100 100 100 100 100 100 100 100 98 70 7 1 8 2 0 0 3 5 30 58 34 2 1 0 0 0 0 0 0
100 75 77 42 5 5 27 72 88 95 73 97 100 30 40 100 100 100 100 36 74 66 89 5 2 3 15 0 6 9 9 93 82 15 1 0 0 0 0 0 1 3 5 0
100 86 81 23 9 5 5 53 99 100 100 100 100 46 18 6 6 4 5 6 92 99 99 100 99 44 2 4 5 29 100 10 5 4 0 2 4 5 5 5 5 5 6 39
96 100 100 80 5 34 74 76 88 100 100 93 100 100 69 45 7 5 5 7 5 5 5 5 12 77 57 18 100 100 69 16 5 5 5 5 5 5 5 5 10 100 100 66
100 100 92 100 100 100 100 73 100 100 100 88 61 64 78 98 98 92 78 62 78 65 90 84 34 66 98 100 72 5 5 5 5 5 5 5 5 5 5 25 95 30 40 94
100 83 75 74 74 96 100 22 89 94 89 81 99 100 86 27 42 87 92 100 98 43 24 82 100 93 26 5 5 5 5 5 5 5 5 5 7 6 10 26 64 96 80 98
96 96 98 100 100 100 98 24 96 98 100 100 100 75 5 5 53 96 98 90 72 33 12 5 5 5 5 5 5 5 5 5 12 31 84 99 87 53 60 100 100 98 100 100
100 100 100 100 100 100 73 91 99 100 94 88 36 31 43 35 30 26 8 7 9 6 5 5 5 5 5 5 5 9 10 40 96 100 100 100 91 91 100 91 100 92 100 100
100 100 100 100 45 77 17 42 97 96 67 88 100 97 66 37 24 23 45 52 61 53 37 5 5 5 7 41 97 72 76 100 100 100 98 100 100 98 100 100 100 100 100 100

GFSCGP_prec_cloud_144.txt.gz
Cloud_Cover
5 0 0 0 0 0 0 0 9 100 100 67 100 100 100 100 100 100 38 12 80 93 49 43 100 100 100 100 80 5 13 5 98 62 96 18 100 100 100 100 95 19 31 99
2 0 9 7 0 0 0 0 0 28 99 100 100 100 100 100 100 99 94 69 6 5 5 8 28 53 76 100 100 35 13 7 97 88 19 91 87 100 100 100 100 100 100 41
30 1 39 92 4 0 0 0 0 0 4 100 100 100 100 100 100 89 77 60 17 49 5 5 5 5 6 48 87 29 83 100 100 100 64 77 98 100 100 91 100 100 100 100
100 8 0 61 6 5 1 0 0 0 0 35 100 98 100 100 100 100 100 100 63 5 4 5 54 5 5 5 5 58 100 100 100 100 77 17 37 54 62 99 59 100 100 100
100 24 1 0 4 5 0 0 0 0 0 0 5 5 59 100 100 100 100 100 52 5 0 0 0 5 5 5 7 5 5 5 15 99 11 33 86 100 74 100 95 16 84 100
100 77 5 0 0 0 0 0 0 0 0 0 0 3 32 44 100 100 100 100 67 5 1 0 12 3 0 4 4 2 5 5 4 4 8 70 100 81 19 78 69 100 97 95
0 20 5 0 0 0 0 0 0 0 0 0 0 0 2 100 100 100 100 100 100 49 0 5 2 0 0 0 1 4 5 3 5 67 49 24 38 100 100 82 19 29 6 67
13 0 5 0 0 0 0 0 0 0 1 1 0 0 0 16 100 100 100 100 100 100 91 55 35 3 0 2 2 5 5 5 8 17 51 15 10 2 11 51 82 5 5 4
100 78 25 14 8 0 0 0 0 3 5 5 0 0 0 0 0 70 100 100 100 100 48 52 99 100 73 45 23 10 61 21 56 11 6 2 0 0 0 0 2 0 0 1
100 100 96 75 37 7 0 0 0 5 73 18 0 0 0 0 0 0 75 100 100 100 100 100 86 36 61 89 94 99 91 63 42 76 47 14 5 5 5 5 4 1 0 0
12 3 0 0 0 0 0 0 0 4 0 2 3 0 5 4 4 2 3 12 34 84 86 100 100 100 100 100 100 100 100 100 92 86 44 30 54 94 83 5 0 1 4 5
6 5 5 30 6 3 4 0 2 5 0 15 51 5 54 64 98 34 63 5 5 5 3 1 99 100 100 100 100 78 100 100 100 99 99 100 100 98 86 94 97 98 98 96
47 5 4 0 2 5 5 4 59 5 1 1 12 85 100 100 87 57 57 20 4 4 0 0 93 26 87 61 66 10 28 11 8 81 8 13 1 0 0 0 2 25 11 3
5 5 5 2 0 0 0 0 3 53 36 44 64 83 100 100 98 30 2 3 3 5 5 5 5 3 70 22 5 5 35 5 5 3 1 0 0 0 0 0 0 0 0 0
38 49 5 3 0 0 0 5 5 44 67 100 100 88 44 25 13 76 9 3 4 84 60 86 92 100 100 88 96 12 27 5 3 1 1 0 2 5 5 5 4 4 4 1
24 31 4 0 0 48 0 2 5 5 85 100 100 100 100 100 100 100 100 97 100 100 100 100 100 100 100 100 74 63 6 4 42 8 4 0 0 0 0 0 0 0 0 0
5 4 0 0 5 91 28 98 6 72 100 100 100 100 100 100 100 100 100 100 100 100 100 100 100 100 98 94 16 4 10 42 13 9 1 0 2 4 5 5 2 2 5 5
55 16 5 0 61 13 6 99 73 100 100 100 100 100 100 100 100 100 100 100 100 100 100 100 99 100 29 92 7 3 4 4 14 31 5 12 35 17 5 29 7 5 4 4
78 97 42 4 5 6 5 7 53 100 100 100 100 100 100 100 100 100 99 100 100 100 100 100 99 100 73 31 97 15 8 5 5 59 10 5 5 27 5 5 5 5 5 20
100 88 89 70 95 100 74 100 60 73 100 100 100 100 98 88 99 76 98 100 98 84 96 99 100 100 100 97 1 4 5 4 54 26 5 5 5 5 5 5 5 5 94 100
100 100 100 71 98 100 100 100 100 100 42 91 100 84 5 5 9 9 9 15 80 90 100 97 70 90 71 88 12 5 51 84 6 5 5 5 5 5 5 5 5 46 82 28
100 100 100 100 91 58 81 98 100 56 84 98 100 99 91 85 86 58 76 23 66 36 5 5 12 13 11 5 18 91 99 17 10 5 5 5 5 5 8 29 49 84 100 100
100 99 100 100 100 94 100 44 94 86 54 47 97 98 100 100 80 100 100 100 98 83 8 5 5 68 86 99 100 100 31 5 28 49 89 100 100 96 34 56 96 100 100 99
100 100 100 98 100 100 100 75 92 71 46 5 6 8 52 84 57 6 54 100 100 100 100 100 100 100 100 83 21 10 30 86 100 100 100 100 100 99 79 100 99 100 100 100
100 100 100 99 100 97 82 93 98 96 77 60 96 100 100 99 99 24 28 39 77 83 88 86 74 61 76 100 100 100 100 100 100 100 100 100 100 100 100 100 100 100 99 100
100 100 100 100 100 100 100 66 41 12 17 71 74 70 90 80 47 10 5 5 5 5 5 5 25 100 100 100 100 100 100 100 100 100 100 100 100 100 100 100 100 100 100 100

GFSCGP_prec_cloud_150.txt.gz
Cloud_Cover
100 100 7 4 0 0 0 0 0 0 0 0 85 100 100 100 96 96 99 100 91 70 88 100 100 100 100 100 100 100 100 100 100 98 36 73 50 27 68 100 66 92 88 100
100 96 91 100 91 87 76 1 15 4 0 0 0 99 100 95 100 80 93 94 100 100 100 100 100 99 97 100 100 100 100 100 100 100 100 89 7 29 35 86 41 44 84 98
100 94 100 100 100 24 3 12 5 0 0 0 2 9 100 84 100 100 100 100 100 100 100 100 100 100 100 100 100 100 100 100 100 100 100 90 38 8 27 57 89 41 12 18
100 100 70 100 100 65 0 2 5 4 0 0 2 4 30 100 100 100 100 99 100 100 100 100 100 100 100 100 100 100 100 100 100 100 100 100 100 63 40 7 5 5 1 5
8 6 100 46 100 100 40 0 0 0 0 51 2 3 1 98 100 100 100 99 98 100 100 100 100 99 100 100 100 100 100 100 100 100 97 88 98 49 5 5 5 5 5 5
63 99 100 100 100 100 3 27 5 5 79 84 5 0 1 3 58 100 100 100 100 100 100 100 46 99 100 100 99 100 100 100 100 100 100 100 98 99 28 12 7 15 19 17
50 88 91 100 100 96 97 100 97 100 100 8 0 0 0 0 1 46 100 100 100 100 100 100 100 100 100 99 99 100 100 96 68 29 7 15 22 68 67 83 100 65 44 33
76 61 78 100 100 18 44 13 12 9 5 5 1 0 0 0 0 0 10 100 100 100 100 100 100 100 100 100 100 100 100 19 5 5 8 8 5 26 79 97 99 100 100 79
100 100 100 100 100 5 64 30 86 64 6 4 0 0 0 0 0 0 0 0 92 100 100 100 100 100 100 100 100 100 97 23 8 63 48 25 5 5 5 5 6 49 5 4
100 100 100 100 100 100 8 81 3 58 46 44 38 1 0 0 0 0 0 0 0 2 77 100 100 100 100 100 100 100 42 98 100 92 6 5 5 4 5 5 5 7 5 6
100 100 100 100 100 100 81 7 12 16 71 84 51 6 6 4 0 0 0 0 0 0 0 25 100 100 100 100 100 99 99 100 100 98 65 92 7 5 68 59 62 99 93 92
100 100 100 100 100 100 100 100 92 7 68 100 100 95 5 2 2 0 0 0 0 0 0 0 0 4 45 100 100 100 100 100 100 100 100 100 100 99 100 98 91 100 100 100
100 100 100 100 100 100 100 100 100 98 85 97 100 51 2 0 0 0 0 0 0 0 0 0 5 26 42 1 6 6 45 82 100 100 94 98 85 96 100 99 85 36 35 6
24 98 100 100 100 100 100 100 100 94 59 49 22 80 5 5 1 1 0 0 0 0 1 55 84 100 37 9 8 16 22 60 100 8 5 4 20 22 46 41 5 5 3 1
41 98 100 100 100 100 99 99 42 6 5 78 93 100 100 0 4 5 1 0 3 74 98 100 100 98 37 43 82 92 93 100 16 5 5 5 4 5 4 5 4 0 0 0
100 100 100 100 100 100 100 84 19 4 5 5 97 100 0 1 5 5 5 35 96 100 100 100 100 90 30 88 100 100 70 24 88 5 31 54 45 10 5 5 3 3 0 0
100 100 100 100 100 100 100 100 92 12 5 4 34 98 0 0 7 6 10 72 100 100 100 100 79 90 100 100 100 100 100 100 100 100 95 54 23 12 2 0 0 0 0 0
44 67 72 92 49 100 85 23 7 3 1 0 2 2 0 18 18 48 98 100 99 100 100 85 100 100 100 100 97 89 9 42 31 5 5 3 5 4 4 2 0 0 0 0
55 92 73 48 16 100 13 36 45 21 2 6 4 0 2 57 100 100 100 100 100 100 100 100 100 100 100 100 77 75 87 91 9 5 6 61 68 35 5 5 2 0 1 36
100 100 82 33 51 100 100 95 87 5 86 5 5 58 100 100 99 100 49 100 100 100 100 100 100 100 100 98 100 100 64 53 12 13 78 26 2 5 5 3 30 45 93 89
100 100 37 5 10 74 8 54 100 15 94 4 17 83 83 41 88 84 95 57 85 100 96 92 75 74 31 58 100 100 5 43 72 49 97 22 39 50 38 67 90 100 100 94
34 58 25 6 62 55 47 79 69 33 12 4 3 90 61 5 24 69 79 100 91 5 7 92 91 72 89 5 32 26 66 76 53 46 47 61 79 82 88 100 100 100 94 87
98 99 100 36 5 5 9 5 6 5 5 5 5 5 93 86 97 100 88 61 65 98 96 37 9 9 9 5 5 6 36 65 89 79 99 99 100 100 100 100 100 89 93 98
100 100 100 11 5 5 78 84 73 53 37 45 24 5 5 5 5 5 6 5 6 67 96 100 100 100 100 100 100 99 100 100 100 100 100 96 94 98 100 76 87 95 99 100
100 100 100 100 82 91 100 98 100 100 100 100 100 100 100 40 92 100 90 99 100 100 100 97 84 77 93 100 97 97 100 100 100 100 97 92 100 93 86 73 100 78 97 74
100 100 100 100 100 98 84 90 98 100 100 100 100 100 100 100 93 100 100 100 100 100 100 100 99 99 78 61 58 99 100 100 100 100 84 100 100 100 81 97 82 80 83 75